www.pogodaiklimat.ru

Погода и климат >> Архив погоды >> Россия >> Якутия >> Усть-Нера


ПОГОДА в Усть-Нере

  • Прогноз погоды в Усть-Нере
  • Монитор погоды в Усть-Нере
  • Климат города

АРХИВ ПОГОДЫ в Усть-Нере

Время (UTC), дата Ветер
(напр.,м/с)
 
Видим.   Явления Облачность Т
(С)
Тd
(С)
f
(%)
Тe
(С)
Тes
(С)
Комфортность P
(гПа)
Po
(гПа)
Тmin
(С)
Tmax
(С)
R
(мм)
R24
(мм)
S
(см)
00 15.02 В 1 50 км ясно -40.2 -43.4 71 -45 -45 опасность
обморожения
1018.2 943.4 -41.7
03 15.02 ЮЗ 2 50 км ясно -34.3 -37.8 70 -42 -41 опасность
обморожения
1016.1 943.6
06 15.02 Ю 1 50 км ясно -30.1 -33.9 69 -34 -34 опасность
обморожения
1014.6 943.5
09 15.02 штиль 0 10 км ясно -38.5 -42.0 69 -39 -39 опасность
обморожения
1019.0 945.1 -29.6
12 15.02 штиль 0 10 км ясно -41.0 -44.4 69 -41 -41 опасность
обморожения
1021.0 946.2
15 15.02 штиль 0 10 км ясно -42.9 -46.2 70 -43 -43 опасность
обморожения
1022.4 946.9
18 15.02 штиль 0 10 км ясно -44.0 -47.6 67 -44 -44 опасность
обморожения
1023.7 947.8
21 15.02 штиль 0 10 км ясно -44.2 -47.6 69 -44 -44 опасность
обморожения
1024.3 948.4 -44.3 38
00 16.02 З 1 50 км ясно -43.5 -46.9 69 -49 -48 опасность
обморожения
1025.0 949.2 -45.1
03 16.02 штиль 0 50 км 3/0
[Ci fib]
-36.0 -39.7 69 -36 -35 опасность
обморожения
1021.9 948.5
06 16.02 штиль 0 50 км 6/0
[Ci fib]
-32.7 -36.5 69 -33 -33 опасность
обморожения
1020.6 948.4
09 16.02 штиль 0 10 км ясно -40.1 -43.4 70 -40 -40 опасность
обморожения
1023.7 949.0 -32.7
12 16.02 штиль 0 10 км слабый снег 10/0
[Cs]
-37.6 -41.2 69 -38 -38 опасность
обморожения
1023.0 949.2
15 16.02 З 1 10 км слабый снег 10/0
[As op]
-37.0 -39.8 75 -42 -42 опасность
обморожения
1022.7 949.0
18 16.02 З 2 10 км слабый снег 10/0
[As op]
-37.2 -40.1 74 -46 -46 опасность
обморожения
1022.7 949.0
21 16.02 З 1 10 км слабый снег 10/0
[As op]
-37.6 -40.5 74 -43 -43 опасность
обморожения
1023.4 949.5 -40.2 0.3 38
00 17.02 ЮЗ 2 20 км слабый снег 10/3 1500 м
[Sc Ci fib]
-37.3 -40.1 75 -46 -46 опасность
обморожения
1023.9 950.0
03 17.02 штиль 0 50 км {снег} 8/3 1500 м
[Sc Ci fib]
-33.2 -37.0 69 -33 -32 опасность
обморожения
1022.0 949.5
06 17.02 штиль 0 50 км {снег} 8/0
[Ci fib]
-31.0 -34.8 69 -31 -31 опасность
обморожения
1021.1 949.3
09 17.02 штиль 0 10 км ясно -37.7 -41.2 70 -38 -38 опасность
обморожения
1023.5 949.6 -30.8 0.0
12 17.02 штиль 0 10 км ясно -41.2 -44.4 71 -41 -41 опасность
обморожения
1025.5 950.4
15 17.02 ЮЗ 1 10 км 8/0
[Ci fib]
-38.4 -42.0 69 -43 -43 опасность
обморожения
1025.0 950.7
18 17.02 З 2 10 км слабый снег 10/0
[As op]
-38.9 -41.8 74 -48 -48 опасность
обморожения
1025.9 951.4
21 17.02 штиль 0 10 км {снег} 6/0
[Ci fib]
-42.4 -45.6 71 -42 -42 опасность
обморожения
1027.5 951.9 -42.4 0.0 38
00 18.02 З 1 50 км 9/0
[Ci fib]
-40.4 -43.9 69 -46 -45 опасность
обморожения
1027.6 952.5 -43.9
03 18.02 Ю 1 50 км 4/0
[Ci fib]
-35.4 -39.0 69 -40 -39 опасность
обморожения
1024.9 951.5
06 18.02 Ю 1 50 км 9/0
[Ci fib]
-32.3 -35.9 70 -37 -37 опасность
обморожения
1022.6 950.3
09 18.02 штиль 0 10 км 9/0
[Ac lent Ci fib]
-36.7 -40.1 71 -37 -37 опасность
обморожения
1024.2 950.5 -31.7
12 18.02 штиль 0 10 км 8/0
[Ac lent Ci fib]
-37.8 -41.2 70 -38 -38 опасность
обморожения
1024.2 950.1
15 18.02 З 1 10 км 8/0
[Ci fib]
-38.2 -41.6 70 -43 -43 опасность
обморожения
1023.7 949.6
18 18.02 штиль 0 10 км 8/0
[Ci fib]
-39.0 -42.5 69 -39 -39 опасность
обморожения
1023.3 949.0
21 18.02 З 1 10 км 4/0
[Ci fib]
-41.4 -45.0 68 -47 -47 опасность
обморожения
1024.3 949.1 -41.4 38
00 19.02 З 1 50 км 10/0
[Ac trans Ci fib]
-38.5 -42.0 69 -44 -43 опасность
обморожения
1023.3 949.1 -42.5
03 19.02 20 км слабый снег 3/0
[Cs]
-33.9 -38.3 64 1020.4 947.7
06 19.02 штиль 0 50 км {снег} 6/0
[Cs]
-32.4 -36.9 64 -32 -32 опасность
обморожения
1018.9 946.8
09 19.02 ЮЗ 1 10 км 3/0
[Ci fib]
-39.8 -43.4 68 -45 -45 опасность
обморожения
1021.4 946.9 -31.9 0.0
12 19.02 штиль 0 10 км ясно -41.8 -45.0 71 -42 -42 опасность
обморожения
1022.2 947.0
15 19.02 штиль 0 10 км ясно -43.1 -46.2 71 -43 -43 опасность
обморожения
1022.0 946.5
18 19.02 штиль 0 10 км ясно -44.1 -47.6 68 -44 -44 опасность
обморожения
1021.4 945.6
21 19.02 штиль 0 10 км 3/0
[Ac trans]
-43.2 -46.2 72 -43 -43 опасность
обморожения
1020.3 945.0 -45.1 38
00 20.02 штиль 0 20 км слабый снег 10/0
[Ac trans Cs]
-39.4 -42.3 74 -39 -39 опасность
обморожения
1019.0 944.8
03 20.02 штиль 0 50 км {снег} 9/0
[Ac trans Ci fib]
-35.3 -39.0 69 -35 -34 опасность
обморожения
1016.5 943.7
06 20.02 штиль 0 10 км {снег} 4/0
[Ci fib]
-32.3 -35.9 70 -32 -32 опасность
обморожения
1014.9 943.1
09 20.02 штиль 0 10 км 4/0
[Ci fib]
-32.5 -35.8 72 -33 -33 опасность
обморожения
1018.0 943.9 -31.7 0.0
12 20.02 штиль 0 10 км слабый снег 10/0
[As op]
-34.2 -37.1 75 -34 -34 опасность
обморожения
1017.0 944.6
15 20.02 штиль 0 10 км слабый снег 10/0
[Cs]
-35.5 -38.4 75 -36 -36 опасность
обморожения
1017.8 944.9
18 20.02 штиль 0 10 км {снег} 6/0
[Ci fib]
-41.4 -45.0 68 -41 -41 опасность
обморожения
1020.1 945.3
21 20.02 З 1 10 км 3/0
[Ci fib]
-43.7 -46.9 70 -49 -49 опасность
обморожения
1022.2 946.9 -43.7 0.2 38
00 21.02 штиль 0 50 км 3/0
[Ci fib]
-41.2 -44.4 71 -41 -40 опасность
обморожения
1022.5 947.6 -44.4
03 21.02 штиль 0 50 км ясно -33.4 -37.7 65 -33 -31 опасность
обморожения
1020.0 947.5
06 21.02 штиль 0 50 км ясно -31.2 -35.8 64 -31 -31 опасность
обморожения
1019.3 947.6
09 21.02 З 1 10 км ясно -39.7 -42.9 71 -45 -45 опасность
обморожения
1023.3 948.8 -30.8
12 21.02 штиль 0 10 км ясно -41.5 -45.0 69 -42 -42 опасность
обморожения
1025.2 950.0
15 21.02 штиль 0 10 км ясно -43.2 -46.2 72 -43 -43 опасность
обморожения
1026.5 950.7
18 21.02 штиль 0 10 км ясно -44.5 -47.6 71 -45 -45 опасность
обморожения
1028.0 951.4

 

Местоположение метеостанции Усть-Нера (Якутия, Россия): широта 64.53 долгота 143.10 высота над уровнем моря 519 м.

В архиве по умолчанию представлена погода в Усть-Нере за последнюю неделю. Архивные данные за месяц целиком и за предыдущие месяцы, начиная с января 2011 года, Вы можете получить, выбрав интересующий диапазон дат из раскрывающегося списка и нажав кнопку "Ввод!".

Внимание! Время в таблицах - всемирное. Для получения местного времени необходимо прибавить поправку, которая в Усть-Нере равна 10 ч.

Смотрите также архив погоды в соседних городах и на ближайших метеорологических станциях:

Погода в Юртах (Якутия, Россия) (82 км)
Погода в Оймяконе (Якутия, Россия) (142 км)
Погода в Делянкире (Якутия, Россия) (144 км)
Погода в Агаякане (Якутия, Россия) (150 км)
Погода в Усть-Моме (Якутия, Россия) (214 км)
Погода в Восточной (Якутия, Россия) (224 км)
Погода в Сусумане (Магаданская область, Россия) (314 км)
Погода в Иэме (Якутия, Россия) (355 км)
Погода в Томпо (Якутия, Россия) (359 км)
Погода в Теплом Ключе (Якутия, Россия) (367 км)

Пояснения к столбцам:

Ветер - указаны скорость ветра в м/с - средняя за 10 мин, порывы в срок и между сроками (в фигурных скобках) и направление, откуда дует ветер: С - северный, СВ - северо-восточный, В - восточный, ЮВ - юго-восточный, Ю - южный, ЮЗ - юго-западный, З - западный, СЗ - северо-западный.
Видимость - горизонтальная дальность видимости в метрах или километрах. При видимости от 1 до 10 км при отсутствии осадков обычно наблюдается дымка, при ухудшении видимости до 1 км и менее - туман. В сухую погоду видимость может ухудшаться дымом, пылью или мглою.
Явления - указаны атмосферные явления, наблюдавшиеся в срок или в последний час перед сроком; фигурными скобками обозначены явления, наблюдавшиеся между сроками (за 1-3 часа до срока); квадратными скобками обозначены град или гололедные отложения с указанием их диаметра в мм.
Облачность - указаны через наклонную черту общая и нижняя облачность в баллах и высота нижней границы облаков в метрах; квадратными скобками обозначены формы облаков: Ci - перистые, Cs - перисто-слоистые, Cc - перисто-кучевые, Ac - высококучевые, As - высокослоистые, Sc - слоисто-кучевые, Ns - слоисто-дождевые, Cu - кучевые, Cb - кучево-дождевые. Подробнее классификацию облаков см. в Атласе облаков (PDF).
T - Температура воздуха - температура, измеренная на высоте 2 м над землей.
Td - Температура точки росы - температура, при понижении до которой содержащийся в воздухе водяной пар достигнет насыщения.
f - Относительная влажность воздуха - влажноcть воздуха, измеренная на высоте 2 м над землей.
Te - Эффективная температура - температура, которую ощущает одетый по сезону человек в тени. Характеристика душности погоды. При расчете учитывается влияние влажности воздуха и скорости ветра на теплоощущения человека.
Tes - Эффективная температура на солнце - температура, которую ощущает человек, с поправкой на солнечный нагрев. Характеристика знойности погоды. Зависит от высоты солнца над горизонтом, облачности и скорости ветра. Ночью, в пасмурную погоду, а также при ветре 12 м/с и более поправка равна нулю.
P - Атмосферное давление - приведенное к уровню моря атмосферное давление.
Po - Атмосферное давление - измеренное на уровне метеостанции атмосферное давление.
Tmin - Минимальная температура - минимум температуры воздуха на высоте 2 м над землей.
Tmax - Максимальная температура - максимум температуры воздуха на высоте 2 м над землей.
R - Количество осадков - Количество выпавших осадков за период времени, мм. При наведении курсора мыши на число - период времени, за который выпало указанное количество осадков.
R24 - Количество осадков - Количество выпавших осадков за 24 часа, мм.
S - Снежный покров - Высота снежного покрова, см. При наведении курсора мыши на число - состояние снежного покрова и степень покрытия местности в баллах.